This is the latest recevied weather packets stored in our database for station/object K1RFS. If no packets are shown the sender has not sent any weather packets the latest 10 day(s).
| Time | Temp. | Humidity | Pressure | Rain* | Wind** | Luminosity | Snow |
|---|---|---|---|---|---|---|---|
| 1787602076 | 34.44° C | 26% | 1005.8 hPa | 0 mm | - | 480 W/m² | - |
| 1787601774 | 35.56° C | 25% | 1005.8 hPa | 0 mm | - | 214 W/m² | - |
| 1787601471 | 35.56° C | 25% | 1006 hPa | 0 mm | - | 683 W/m² | - |
| 1787601170 | 34.44° C | 25% | 1006.1 hPa | 0 mm | - | 674 W/m² | - |
| 1787600869 | 33.89° C | 25% | 1006.3 hPa | 0 mm | - | 659 W/m² | - |
| 1787600564 | 33.89° C | 26% | 1006.4 hPa | 0 mm | - | 652 W/m² | - |
| 1787600260 | 33.89° C | 27% | 1006.4 hPa | 0 mm | - | 634 W/m² | - |
| 1787599956 | 33.33° C | 27% | 1006.4 hPa | 0 mm | - | 624 W/m² | - |
| 1787599652 | 33.33° C | 27% | 1006.6 hPa | 0 mm | - | 620 W/m² | - |
| 1787599349 | 32.78° C | 28% | 1006.9 hPa | 0 mm | - | 616 W/m² | - |
| 1787599044 | 32.78° C | 28% | 1006.8 hPa | 0 mm | - | 616 W/m² | - |
| 1787598741 | 32.78° C | 30% | 1006.8 hPa | 0 mm | - | 615 W/m² | - |
| 1787598441 | 32.22° C | 29% | 1007 hPa | 0 mm | - | 612 W/m² | - |
| 1787598136 | 31.67° C | 29% | 1007 hPa | 0 mm | - | 611 W/m² | - |
| 1787597833 | 31.67° C | 30% | 1007 hPa | 0 mm | - | 625 W/m² | - |
| 1787597531 | 31.67° C | 30% | 1007.1 hPa | 0 mm | - | 552 W/m² | - |
| 1787597231 | 31.11° C | 31% | 1007.2 hPa | 0 mm | - | 607 W/m² | - |
| 1787596927 | 31.11° C | 30% | 1007.3 hPa | 0 mm | - | 598 W/m² | - |
| 1787596623 | 31.11° C | 31% | 1007.3 hPa | 0 mm | - | 294 W/m² | - |
| 1787596323 | 31.11° C | 31% | 1007.2 hPa | 0 mm | - | 606 W/m² | - |
| 1787596019 | 31.11° C | 30% | 1007.2 hPa | 0 mm | - | 589 W/m² | - |
| 1787595714 | 31.11° C | 30% | 1007.6 hPa | 0 mm | - | 584 W/m² | - |
| 1787595410 | 31.11° C | 29% | 1007.6 hPa | 0 mm | - | 582 W/m² | - |
| 1787595110 | 31.67° C | 29% | 1007.4 hPa | 0 mm | - | 579 W/m² | - |
| 1787594805 | 30.56° C | 29% | 1007.6 hPa | 0 mm | - | 560 W/m² | - |
* Rain latest hour (hover to see other rain measurements)
** Current wind speed in m/s (hover to see current wind gust speed)